Time,TemperatureF,DewpointF,PressureIn,WindDirection,WindDirectionDegrees,WindSpeedMPH,WindSpeedGustMPH,Humidity,HourlyPrecipIn,Conditions,Clouds,dailyrainin,SoftwareType,DateUTC
2013-03-07 00:00:00,33.6,26.9,30.18,NW,308,5.0,10.0,76,0.00,,,0.00,WUHU216DAVISVP2,2013-03-07 05:00:00,
2013-03-07 00:01:00,33.6,26.9,30.18,NW,315,3.1,8.0,76,0.00,,,0.00,WUHU216DAVISVP2,2013-03-07 05:01:00,
2013-03-07 00:06:00,33.6,26.9,30.17,NNW,341,5.0,8.0,76,0.00,,,0.00,WUHU216DAVISVP2,2013-03-07 05:06:00,
2013-03-07 00:11:00,33.5,27.1,30.17,NW,318,4.9,9.0,77,0.00,,,0.00,WUHU216DAVISVP2,2013-03-07 05:11:00,
2013-03-07 00:16:00,33.4,27.0,30.16,NW,311,7.4,12.0,77,0.00,,,0.00,WUHU216DAVISVP2,2013-03-07 05:16:00,
2013-03-07 00:21:00,33.3,26.9,30.16,NW,314,7.8,14.0,77,0.00,,,0.00,WUHU216DAVISVP2,2013-03-07 05:21:00,
2013-03-07 00:26:00,33.3,26.9,30.17,NW,310,4.9,14.0,77,0.00,,,0.00,WUHU216DAVISVP2,2013-03-07 05:26:00,
2013-03-07 00:31:00,33.2,26.8,30.17,NNW,340,7.0,12.0,77,0.00,,,0.00,WUHU216DAVISVP2,2013-03-07 05:31:00,
2013-03-07 00:36:00,33.0,26.9,30.17,NW,324,4.3,12.0,78,0.00,,,0.00,WUHU216DAVISVP2,2013-03-07 05:36:00,
2013-03-07 00:41:00,33.0,26.9,30.17,NW,306,4.5,11.0,78,0.00,,,0.00,WUHU216DAVISVP2,2013-03-07 05:41:00,
2013-03-07 00:46:00,32.9,26.8,30.17,NW,321,5.0,11.0,78,0.00,,,0.00,WUHU216DAVISVP2,2013-03-07 05:46:00,
2013-03-07 00:51:00,32.9,26.8,30.17,NNW,336,7.0,14.0,78,0.00,,,0.00,WUHU216DAVISVP2,2013-03-07 05:51:00,
2013-03-07 00:56:00,32.8,26.7,30.18,NW,316,4.2,14.0,78,0.00,,,0.00,WUHU216DAVISVP2,2013-03-07 05:56:00,
2013-03-07 01:01:00,32.7,26.9,30.18,NW,312,3.1,13.0,79,0.00,,,0.00,WUHU216DAVISVP2,2013-03-07 06:01:00,
2013-03-07 01:06:00,32.7,26.9,30.18,WNW,292,4.0,13.0,79,0.00,,,0.00,WUHU216DAVISVP2,2013-03-07 06:06:00,
2013-03-07 01:11:00,32.6,26.8,30.18,NW,324,3.2,9.0,79,0.00,,,0.00,WUHU216DAVISVP2,2013-03-07 06:11:00,
2013-03-07 01:16:00,32.5,26.7,30.18,WNW,288,3.0,9.0,79,0.00,,,0.00,WUHU216DAVISVP2,2013-03-07 06:16:00,
2013-03-07 01:21:00,32.5,26.7,30.18,NW,318,3.7,8.0,79,0.00,,,0.00,WUHU216DAVISVP2,2013-03-07 06:21:00,
2013-03-07 01:26:00,32.5,26.7,30.18,NW,307,3.4,8.0,79,0.00,,,0.00,WUHU216DAVISVP2,2013-03-07 06:26:00,
2013-03-07 01:31:00,32.4,26.6,30.18,NW,308,4.4,9.0,79,0.00,,,0.00,WUHU216DAVISVP2,2013-03-07 06:31:00,
2013-03-07 01:36:00,32.4,26.6,30.19,NW,326,5.0,9.0,79,0.00,,,0.00,WUHU216DAVISVP2,2013-03-07 06:36:00,
2013-03-07 01:41:00,32.4,26.6,30.18,NW,317,6.0,10.0,79,0.00,,,0.00,WUHU216DAVISVP2,2013-03-07 06:41:00,
2013-03-07 01:46:00,32.3,26.8,30.18,WNW,302,3.4,11.0,80,0.00,,,0.00,WUHU216DAVISVP2,2013-03-07 06:46:00,
2013-03-07 01:51:00,32.3,26.8,30.18,NW,321,3.3,11.0,80,0.00,,,0.00,WUHU216DAVISVP2,2013-03-07 06:51:00,
2013-03-07 01:56:00,32.2,26.7,30.18,WNW,296,4.0,11.0,80,0.00,,,0.00,WUHU216DAVISVP2,2013-03-07 06:56:00,
2013-03-07 02:01:00,32.1,26.6,30.18,NW,306,2.8,9.0,80,0.00,,,0.00,WUHU216DAVISVP2,2013-03-07 07:01:00,
2013-03-07 02:06:00,32.0,26.5,30.17,NW,323,4.0,9.0,80,0.00,,,0.00,WUHU216DAVISVP2,2013-03-07 07:06:00,
2013-03-07 02:11:00,31.9,26.4,30.18,NW,312,2.8,9.0,80,0.00,,,0.00,WUHU216DAVISVP2,2013-03-07 07:11:00,
2013-03-07 02:16:00,31.9,26.7,30.17,NNW,340,8.0,9.0,81,0.00,,,0.00,WUHU216DAVISVP2,2013-03-07 07:16:00,
2013-03-07 02:21:00,31.9,26.7,30.18,NW,318,5.6,10.0,81,0.00,,,0.00,WUHU216DAVISVP2,2013-03-07 07:21:00,
2013-03-07 02:26:00,31.8,26.6,30.18,NW,317,6.0,10.0,81,0.00,,,0.00,WUHU216DAVISVP2,2013-03-07 07:26:00,
2013-03-07 02:31:00,31.7,26.5,30.18,NW,320,5.5,10.0,81,0.00,,,0.00,WUHU216DAVISVP2,2013-03-07 07:31:00,
2013-03-07 02:36:00,31.7,26.5,30.18,NW,308,4.3,10.0,81,0.00,,,0.00,WUHU216DAVISVP2,2013-03-07 07:36:00,
2013-03-07 02:41:00,31.6,26.4,30.18,NW,319,4.0,10.0,81,0.00,,,0.00,WUHU216DAVISVP2,2013-03-07 07:41:00,
2013-03-07 02:46:00,31.6,26.4,30.18,WNW,300,6.0,10.0,81,0.00,,,0.00,WUHU216DAVISVP2,2013-03-07 07:46:00,
2013-03-07 02:51:00,31.6,26.4,30.17,NW,315,4.7,11.0,81,0.00,,,0.00,WUHU216DAVISVP2,2013-03-07 07:51:00,
2013-03-07 02:56:00,31.5,26.3,30.17,NW,324,5.0,11.0,81,0.00,,,0.00,WUHU216DAVISVP2,2013-03-07 07:56:00,
2013-03-07 03:01:00,31.5,26.3,30.18,NW,305,4.1,11.0,81,0.00,,,0.00,WUHU216DAVISVP2,2013-03-07 08:01:00,
2013-03-07 03:06:00,31.4,26.2,30.19,NW,312,3.8,11.0,81,0.00,,,0.00,WUHU216DAVISVP2,2013-03-07 08:06:00,
2013-03-07 03:11:00,31.4,26.2,30.19,NNW,331,4.0,9.0,81,0.00,,,0.00,WUHU216DAVISVP2,2013-03-07 08:11:00,
2013-03-07 03:16:00,31.4,26.2,30.19,NW,312,4.0,9.0,81,0.00,,,0.00,WUHU216DAVISVP2,2013-03-07 08:16:00,
2013-03-07 03:21:00,31.4,26.2,30.19,WNW,292,5.0,10.0,81,0.00,,,0.00,WUHU216DAVISVP2,2013-03-07 08:21:00,
2013-03-07 03:26:00,31.4,26.2,30.19,NNW,329,7.0,12.0,81,0.00,,,0.00,WUHU216DAVISVP2,2013-03-07 08:26:00,
2013-03-07 03:31:00,31.3,26.1,30.19,NW,314,5.0,12.0,81,0.00,,,0.00,WUHU216DAVISVP2,2013-03-07 08:31:00,
2013-03-07 03:36:00,31.2,26.0,30.19,NW,325,4.0,12.0,81,0.00,,,0.00,WUHU216DAVISVP2,2013-03-07 08:36:00,
2013-03-07 03:41:00,31.2,26.0,30.20,NW,309,4.0,9.0,81,0.00,,,0.00,WUHU216DAVISVP2,2013-03-07 08:41:00,
2013-03-07 03:46:00,31.2,26.0,30.19,NW,317,6.0,12.0,81,0.00,,,0.00,WUHU216DAVISVP2,2013-03-07 08:46:00,
2013-03-07 03:51:00,31.1,26.2,30.19,NW,309,5.2,12.0,82,0.00,,,0.00,WUHU216DAVISVP2,2013-03-07 08:51:00,
2013-03-07 03:56:00,31.1,26.2,30.19,NW,320,4.1,12.0,82,0.00,,,0.00,WUHU216DAVISVP2,2013-03-07 08:56:00,
2013-03-07 04:01:00,31.0,26.1,30.19,NNW,333,7.0,11.0,82,0.00,,,0.00,WUHU216DAVISVP2,2013-03-07 09:01:00,
2013-03-07 04:06:00,31.0,26.1,30.19,NNW,332,4.0,10.0,82,0.00,,,0.00,WUHU216DAVISVP2,2013-03-07 09:06:00,
2013-03-07 04:11:00,31.0,26.1,30.19,NW,307,4.0,10.0,82,0.00,,,0.00,WUHU216DAVISVP2,2013-03-07 09:11:00,
2013-03-07 04:16:00,30.9,26.1,30.19,NW,316,4.0,9.0,82,0.00,,,0.00,WUHU216DAVISVP2,2013-03-07 09:16:00,
2013-03-07 04:21:00,30.8,26.0,30.19,WNW,294,5.0,11.0,82,0.00,,,0.00,WUHU216DAVISVP2,2013-03-07 09:21:00,
2013-03-07 04:26:00,30.8,26.0,30.19,West,273,9.0,11.0,82,0.00,,,0.00,WUHU216DAVISVP2,2013-03-07 09:26:00,
2013-03-07 04:31:00,30.8,25.9,30.19,NW,308,3.6,11.0,82,0.00,,,0.00,WUHU216DAVISVP2,2013-03-07 09:31:00,
2013-03-07 04:36:00,30.8,26.0,30.20,WNW,303,3.0,11.0,82,0.00,,,0.00,WUHU216DAVISVP2,2013-03-07 09:36:00,
2013-03-07 04:41:00,30.7,25.9,30.20,NW,313,3.3,11.0,82,0.00,,,0.00,WUHU216DAVISVP2,2013-03-07 09:41:00,
2013-03-07 04:46:00,30.6,25.8,30.20,NW,311,4.0,11.0,82,0.00,,,0.00,WUHU216DAVISVP2,2013-03-07 09:46:00,
2013-03-07 04:51:00,30.6,26.0,30.20,NW,309,3.1,8.0,83,0.00,,,0.00,WUHU216DAVISVP2,2013-03-07 09:51:00,
2013-03-07 04:56:00,30.6,26.0,30.20,NW,310,2.8,8.0,83,0.00,,,0.00,WUHU216DAVISVP2,2013-03-07 09:56:00,
2013-03-07 05:01:00,30.5,25.9,30.20,NNW,327,2.7,8.0,83,0.00,,,0.00,WUHU216DAVISVP2,2013-03-07 10:01:00,
2013-03-07 05:06:00,30.4,25.8,30.20,NW,321,3.1,6.0,83,0.00,,,0.00,WUHU216DAVISVP2,2013-03-07 10:06:00,
2013-03-07 05:11:00,30.3,25.7,30.20,NNW,327,5.0,6.0,83,0.00,,,0.00,WUHU216DAVISVP2,2013-03-07 10:11:00,
2013-03-07 05:16:00,30.2,25.9,30.21,NW,316,2.2,6.0,84,0.00,,,0.00,WUHU216DAVISVP2,2013-03-07 10:16:00,
2013-03-07 05:21:00,30.2,25.9,30.22,NW,304,2.5,7.0,84,0.00,,,0.00,WUHU216DAVISVP2,2013-03-07 10:21:00,
2013-03-07 05:26:00,30.2,25.9,30.21,NW,307,2.7,7.0,84,0.00,,,0.00,WUHU216DAVISVP2,2013-03-07 10:26:00,
2013-03-07 05:31:00,30.3,26.0,30.21,NW,314,2.5,7.0,84,0.00,,,0.00,WUHU216DAVISVP2,2013-03-07 10:31:00,
2013-03-07 05:36:00,30.3,26.0,30.21,NNW,329,4.0,7.0,84,0.00,,,0.00,WUHU216DAVISVP2,2013-03-07 10:36:00,
2013-03-07 05:41:00,30.3,26.0,30.21,NW,315,3.0,7.0,84,0.00,,,0.00,WUHU216DAVISVP2,2013-03-07 10:41:00,
2013-03-07 05:46:00,30.3,26.0,30.22,NW,317,2.8,7.0,84,0.00,,,0.00,WUHU216DAVISVP2,2013-03-07 10:46:00,
2013-03-07 05:51:00,30.3,26.0,30.22,NW,322,4.0,12.0,84,0.00,,,0.00,WUHU216DAVISVP2,2013-03-07 10:51:00,
2013-03-07 05:57:00,30.4,26.1,30.22,NW,309,3.3,12.0,84,0.00,,,0.00,WUHU216DAVISVP2,2013-03-07 10:57:00,
2013-03-07 06:02:00,30.4,26.1,30.22,WNW,292,4.0,12.0,84,0.00,,,0.00,WUHU216DAVISVP2,2013-03-07 11:02:00,
2013-03-07 06:07:00,30.5,26.2,30.21,WNW,294,4.0,12.0,84,0.00,,,0.00,WUHU216DAVISVP2,2013-03-07 11:07:00,
2013-03-07 06:12:00,30.4,26.1,30.21,NW,304,2.2,9.0,84,0.00,,,0.00,WUHU216DAVISVP2,2013-03-07 11:12:00,
2013-03-07 06:17:00,30.4,26.1,30.21,WNW,295,3.0,9.0,84,0.00,,,0.00,WUHU216DAVISVP2,2013-03-07 11:17:00,
2013-03-07 06:22:00,30.3,26.3,30.22,NNW,331,4.0,7.0,85,0.00,,,0.00,WUHU216DAVISVP2,2013-03-07 11:22:00,
2013-03-07 06:27:00,30.3,26.3,30.22,NW,321,3.0,7.0,85,0.00,,,0.00,WUHU216DAVISVP2,2013-03-07 11:27:00,
2013-03-07 06:32:00,30.3,26.3,30.22,NW,317,1.0,7.0,85,0.00,,,0.00,WUHU216DAVISVP2,2013-03-07 11:32:00,
2013-03-07 06:37:00,30.3,26.3,30.22,NW,316,2.4,6.0,85,0.00,,,0.00,WUHU216DAVISVP2,2013-03-07 11:37:00,
2013-03-07 06:43:00,30.4,26.4,30.22,NNW,332,3.0,8.0,85,0.00,,,0.00,WUHU216DAVISVP2,2013-03-07 11:43:00,
2013-03-07 06:48:00,30.4,26.4,30.23,NW,316,4.0,8.0,85,0.00,,,0.00,WUHU216DAVISVP2,2013-03-07 11:48:00,
2013-03-07 06:53:00,30.5,26.5,30.23,NW,315,3.2,8.0,85,0.00,,,0.00,WUHU216DAVISVP2,2013-03-07 11:53:00,
2013-03-07 06:58:00,30.6,26.6,30.23,WNW,293,3.0,7.0,85,0.00,,,0.00,WUHU216DAVISVP2,2013-03-07 11:58:00,
2013-03-07 07:03:00,30.6,26.6,30.23,NW,317,3.0,7.0,85,0.00,,,0.00,WUHU216DAVISVP2,2013-03-07 12:03:00,
2013-03-07 07:08:00,30.6,26.6,30.23,WNW,303,2.6,8.0,85,0.00,,,0.00,WUHU216DAVISVP2,2013-03-07 12:08:00,
2013-03-07 07:13:00,30.7,26.7,30.23,NW,318,3.3,8.0,85,0.00,,,0.00,WUHU216DAVISVP2,2013-03-07 12:13:00,
2013-03-07 07:18:00,30.7,26.7,30.23,NW,304,3.4,8.0,85,0.00,,,0.00,WUHU216DAVISVP2,2013-03-07 12:18:00,
2013-03-07 07:23:00,30.8,26.8,30.23,NW,309,3.1,8.0,85,0.00,,,0.00,WUHU216DAVISVP2,2013-03-07 12:23:00,
2013-03-07 07:28:00,30.8,26.8,30.24,NW,326,3.3,7.0,85,0.00,,,0.00,WUHU216DAVISVP2,2013-03-07 12:28:00,
2013-03-07 07:33:00,30.9,26.9,30.24,WNW,294,3.0,7.0,85,0.00,,,0.00,WUHU216DAVISVP2,2013-03-07 12:33:00,
2013-03-07 07:38:00,31.0,27.0,30.24,NW,305,3.1,7.0,85,0.00,,,0.00,WUHU216DAVISVP2,2013-03-07 12:38:00,
2013-03-07 07:43:00,31.1,26.8,30.24,NW,306,4.0,8.0,84,0.00,,,0.00,WUHU216DAVISVP2,2013-03-07 12:43:00,
2013-03-07 07:48:00,31.2,26.9,30.24,NW,318,6.0,9.0,84,0.00,,,0.00,WUHU216DAVISVP2,2013-03-07 12:48:00,
2013-03-07 07:53:00,31.3,27.0,30.24,NW,305,3.4,9.0,84,0.00,,,0.00,WUHU216DAVISVP2,2013-03-07 12:53:00,
2013-03-07 07:58:00,31.5,27.2,30.24,NNW,327,7.0,9.0,84,0.00,,,0.00,WUHU216DAVISVP2,2013-03-07 12:58:00,
2013-03-07 08:03:00,31.7,27.4,30.24,NW,318,5.0,10.0,84,0.00,,,0.00,WUHU216DAVISVP2,2013-03-07 13:03:00,
2013-03-07 08:08:00,31.9,27.6,30.24,NW,312,4.1,11.0,84,0.00,,,0.00,WUHU216DAVISVP2,2013-03-07 13:08:00,
2013-03-07 08:13:00,32.1,27.8,30.24,NW,310,3.3,11.0,84,0.00,,,0.00,WUHU216DAVISVP2,2013-03-07 13:13:00,
2013-03-07 08:18:00,32.4,27.8,30.25,NW,314,3.8,11.0,83,0.00,,,0.00,WUHU216DAVISVP2,2013-03-07 13:18:00,
2013-03-07 08:23:00,32.6,28.0,30.24,NW,312,4.2,11.0,83,0.00,,,0.00,WUHU216DAVISVP2,2013-03-07 13:23:00,
2013-03-07 08:28:00,32.8,27.9,30.25,NW,321,4.2,10.0,82,0.00,,,0.00,WUHU216DAVISVP2,2013-03-07 13:28:00,
2013-03-07 08:33:00,32.9,28.0,30.25,NW,316,3.0,10.0,82,0.00,,,0.00,WUHU216DAVISVP2,2013-03-07 13:33:00,
2013-03-07 08:38:00,33.4,28.5,30.25,WNW,290,5.0,9.0,82,0.00,,,0.00,WUHU216DAVISVP2,2013-03-07 13:38:00,
2013-03-07 08:43:00,33.7,28.5,30.25,WNW,288,4.0,9.0,81,0.00,,,0.00,WUHU216DAVISVP2,2013-03-07 13:43:00,
2013-03-07 08:48:00,34.0,28.8,30.26,NW,304,6.0,9.0,81,0.00,,,0.00,WUHU216DAVISVP2,2013-03-07 13:48:00,
2013-03-07 08:53:00,34.2,28.7,30.26,NW,324,4.0,9.0,80,0.00,,,0.00,WUHU216DAVISVP2,2013-03-07 13:53:00,
2013-03-07 08:58:00,34.4,28.9,30.26,NNW,330,4.0,8.0,80,0.00,,,0.00,WUHU216DAVISVP2,2013-03-07 13:58:00,
2013-03-07 09:03:00,34.4,28.6,30.26,NW,325,4.2,9.0,79,0.00,,,0.00,WUHU216DAVISVP2,2013-03-07 14:03:00,
2013-03-07 09:08:00,34.8,28.7,30.26,NW,306,5.0,9.0,78,0.00,,,0.00,WUHU216DAVISVP2,2013-03-07 14:08:00,
2013-03-07 09:13:00,35.2,28.7,30.26,NW,324,2.6,9.0,77,0.00,,,0.00,WUHU216DAVISVP2,2013-03-07 14:13:00,
2013-03-07 09:18:00,35.7,28.9,30.25,NW,326,7.0,9.0,76,0.00,,,0.00,WUHU216DAVISVP2,2013-03-07 14:18:00,
2013-03-07 09:23:00,35.9,28.8,30.26,NNW,331,5.0,9.0,75,0.00,,,0.00,WUHU216DAVISVP2,2013-03-07 14:23:00,
2013-03-07 09:28:00,36.2,29.1,30.26,NW,325,4.0,9.0,75,0.00,,,0.00,WUHU216DAVISVP2,2013-03-07 14:28:00,
2013-03-07 09:33:00,36.5,29.1,30.27,NW,315,4.7,9.0,74,0.00,,,0.00,WUHU216DAVISVP2,2013-03-07 14:33:00,
2013-03-07 09:38:00,36.7,29.2,30.27,NW,313,3.0,9.0,74,0.00,,,0.00,WUHU216DAVISVP2,2013-03-07 14:38:00,
2013-03-07 09:43:00,37.1,29.3,30.27,WNW,302,5.0,9.0,73,0.00,,,0.00,WUHU216DAVISVP2,2013-03-07 14:43:00,
2013-03-07 09:48:00,37.4,29.3,30.27,NW,318,5.1,10.0,72,0.00,,,0.00,WUHU216DAVISVP2,2013-03-07 14:48:00,
2013-03-07 09:53:00,37.6,29.1,30.27,NW,324,4.9,10.0,71,0.00,,,0.00,WUHU216DAVISVP2,2013-03-07 14:53:00,
2013-03-07 09:58:00,37.8,29.3,30.27,NW,318,3.6,10.0,71,0.00,,,0.00,WUHU216DAVISVP2,2013-03-07 14:58:00,
2013-03-07 10:03:00,38.2,29.7,30.27,NW,316,3.5,10.0,71,0.00,,,0.00,WUHU216DAVISVP2,2013-03-07 15:03:00,
2013-03-07 10:08:00,38.6,29.7,30.27,WNW,302,5.0,10.0,70,0.00,,,0.00,WUHU216DAVISVP2,2013-03-07 15:08:00,
2013-03-07 10:13:00,39.0,29.8,30.26,NW,314,2.7,10.0,69,0.00,,,0.00,WUHU216DAVISVP2,2013-03-07 15:13:00,
2013-03-07 10:18:00,39.5,29.9,30.26,NW,323,3.0,10.0,68,0.00,,,0.00,WUHU216DAVISVP2,2013-03-07 15:18:00,
2013-03-07 10:23:00,39.9,30.3,30.27,NW,320,4.0,8.0,68,0.00,,,0.00,WUHU216DAVISVP2,2013-03-07 15:23:00,
2013-03-07 10:28:00,40.4,30.4,30.27,WNW,301,3.0,8.0,67,0.00,,,0.00,WUHU216DAVISVP2,2013-03-07 15:28:00,
2013-03-07 10:33:00,40.7,30.7,30.26,NNW,327,1.6,6.0,67,0.00,,,0.00,WUHU216DAVISVP2,2013-03-07 15:33:00,
2013-03-07 10:38:00,41.1,30.7,30.27,NW,309,3.0,6.0,66,0.00,,,0.00,WUHU216DAVISVP2,2013-03-07 15:38:00,
2013-03-07 10:43:00,41.5,30.7,30.26,NNW,339,4.0,7.0,65,0.00,,,0.00,WUHU216DAVISVP2,2013-03-07 15:43:00,
2013-03-07 10:48:00,41.7,30.5,30.27,NW,308,1.4,8.0,64,0.00,,,0.00,WUHU216DAVISVP2,2013-03-07 15:48:00,
2013-03-07 10:53:00,41.9,30.7,30.27,WNW,299,2.0,8.0,64,0.00,,,0.00,WUHU216DAVISVP2,2013-03-07 15:53:00,
2013-03-07 10:58:00,42.5,31.3,30.27,NW,324,5.0,8.0,64,0.00,,,0.00,WUHU216DAVISVP2,2013-03-07 15:58:00,
2013-03-07 11:03:00,42.9,30.9,30.27,NNW,328,2.4,7.0,62,0.00,,,0.00,WUHU216DAVISVP2,2013-03-07 16:03:00,
2013-03-07 11:08:00,43.0,30.5,30.27,NW,321,4.2,8.0,61,0.00,,,0.00,WUHU216DAVISVP2,2013-03-07 16:08:00,
2013-03-07 11:13:00,43.1,30.6,30.27,NNW,332,2.0,8.0,61,0.00,,,0.00,WUHU216DAVISVP2,2013-03-07 16:13:00,
2013-03-07 11:18:00,43.6,30.7,30.26,NW,322,8.0,9.0,60,0.00,,,0.00,WUHU216DAVISVP2,2013-03-07 16:18:00,
2013-03-07 11:24:00,43.9,31.0,30.27,NW,324,4.2,9.0,60,0.00,,,0.00,WUHU216DAVISVP2,2013-03-07 16:24:00,
2013-03-07 11:29:00,44.2,30.8,30.27,WNW,300,2.0,9.0,59,0.00,,,0.00,WUHU216DAVISVP2,2013-03-07 16:29:00,
2013-03-07 11:34:00,44.6,31.2,30.27,WNW,297,2.1,9.0,59,0.00,,,0.00,WUHU216DAVISVP2,2013-03-07 16:34:00,
2013-03-07 11:39:00,45.0,31.6,30.27,NW,307,1.9,6.0,59,0.00,,,0.00,WUHU216DAVISVP2,2013-03-07 16:39:00,
2013-03-07 11:44:00,45.4,31.1,30.26,NW,326,1.8,6.0,57,0.00,,,0.00,WUHU216DAVISVP2,2013-03-07 16:44:00,
2013-03-07 11:49:00,45.6,31.3,30.26,WNW,283,5.0,6.0,57,0.00,,,0.00,WUHU216DAVISVP2,2013-03-07 16:49:00,
2013-03-07 11:54:00,45.7,30.9,30.26,NNW,335,1.3,5.0,56,0.00,,,0.00,WUHU216DAVISVP2,2013-03-07 16:54:00,
2013-03-07 11:59:00,46.1,31.8,30.25,NW,314,1.3,5.0,57,0.00,,,0.00,WUHU216DAVISVP2,2013-03-07 16:59:00,
2013-03-07 12:04:00,46.3,31.9,30.25,NW,312,1.6,5.0,57,0.00,,,0.00,WUHU216DAVISVP2,2013-03-07 17:04:00,
2013-03-07 12:09:00,46.6,30.9,30.25,NW,313,2.2,7.0,54,0.00,,,0.00,WUHU216DAVISVP2,2013-03-07 17:09:00,
2013-03-07 12:14:00,46.8,31.5,30.25,NW,310,3.0,7.0,55,0.00,,,0.00,WUHU216DAVISVP2,2013-03-07 17:14:00,
2013-03-07 12:19:00,47.0,31.2,30.24,NW,312,3.0,8.0,54,0.00,,,0.00,WUHU216DAVISVP2,2013-03-07 17:19:00,
2013-03-07 12:24:00,47.4,31.6,30.23,WNW,297,3.0,8.0,54,0.00,,,0.00,WUHU216DAVISVP2,2013-03-07 17:24:00,
2013-03-07 12:29:00,47.9,32.1,30.24,NW,326,1.4,8.0,54,0.00,,,0.00,WUHU216DAVISVP2,2013-03-07 17:29:00,
2013-03-07 12:34:00,48.3,32.4,30.24,NW,320,5.3,8.0,54,0.00,,,0.00,WUHU216DAVISVP2,2013-03-07 17:34:00,
2013-03-07 12:39:00,48.3,32.4,30.24,NW,317,1.8,8.0,54,0.00,,,0.00,WUHU216DAVISVP2,2013-03-07 17:39:00,
2013-03-07 12:45:00,48.8,31.9,30.24,WNW,293,4.0,9.0,52,0.00,,,0.00,WUHU216DAVISVP2,2013-03-07 17:45:00,
2013-03-07 12:49:00,49.0,31.6,30.24,NW,314,3.1,9.0,51,0.00,,,0.00,WUHU216DAVISVP2,2013-03-07 17:49:00,
2013-03-07 12:55:00,49.3,31.9,30.23,NW,316,3.0,9.0,51,0.00,,,0.00,WUHU216DAVISVP2,2013-03-07 17:55:00,
2013-03-07 13:00:00,49.6,32.7,30.24,WNW,302,2.4,9.0,52,0.00,,,0.00,WUHU216DAVISVP2,2013-03-07 18:00:00,
2013-03-07 13:05:00,50.1,32.7,30.23,WNW,282,2.0,7.0,51,0.00,,,0.00,WUHU216DAVISVP2,2013-03-07 18:05:00,
2013-03-07 13:10:00,50.4,32.9,30.24,NNW,340,5.0,9.0,51,0.00,,,0.00,WUHU216DAVISVP2,2013-03-07 18:10:00,
2013-03-07 13:15:00,50.3,32.3,30.23,NW,305,4.0,9.0,50,0.00,,,0.00,WUHU216DAVISVP2,2013-03-07 18:15:00,
2013-03-07 13:20:00,50.2,32.2,30.23,NW,310,4.6,9.0,50,0.00,,,0.00,WUHU216DAVISVP2,2013-03-07 18:20:00,
2013-03-07 13:25:00,50.0,32.6,30.24,WNW,298,1.8,10.0,51,0.00,,,0.00,WUHU216DAVISVP2,2013-03-07 18:25:00,
2013-03-07 13:30:00,50.6,33.1,30.23,NW,308,3.7,10.0,51,0.00,,,0.00,WUHU216DAVISVP2,2013-03-07 18:30:00,
2013-03-07 13:35:00,50.7,32.7,30.22,NW,319,1.6,10.0,50,0.00,,,0.00,WUHU216DAVISVP2,2013-03-07 18:35:00,
2013-03-07 13:40:00,51.0,32.5,30.23,NW,316,3.6,9.0,49,0.00,,,0.00,WUHU216DAVISVP2,2013-03-07 18:40:00,
2013-03-07 13:45:00,51.1,33.1,30.22,NW,308,3.1,9.0,50,0.00,,,0.00,WUHU216DAVISVP2,2013-03-07 18:45:00,
2013-03-07 13:50:00,51.4,33.4,30.22,NW,323,1.9,9.0,50,0.00,,,0.00,WUHU216DAVISVP2,2013-03-07 18:50:00,
2013-03-07 13:55:00,51.8,33.2,30.22,NW,312,3.4,9.0,49,0.00,,,0.00,WUHU216DAVISVP2,2013-03-07 18:55:00,
2013-03-07 14:00:00,51.6,33.0,30.21,NW,310,2.7,9.0,49,0.00,,,0.00,WUHU216DAVISVP2,2013-03-07 19:00:00,
2013-03-07 14:05:00,51.7,32.6,30.21,NW,323,5.3,12.0,48,0.00,,,0.00,WUHU216DAVISVP2,2013-03-07 19:05:00,
2013-03-07 14:10:00,51.8,33.2,30.21,NW,316,5.0,12.0,49,0.00,,,0.00,WUHU216DAVISVP2,2013-03-07 19:10:00,
2013-03-07 14:15:00,51.9,33.3,30.20,WNW,293,3.0,12.0,49,0.00,,,0.00,WUHU216DAVISVP2,2013-03-07 19:15:00,
2013-03-07 14:20:00,52.4,32.7,30.20,WNW,303,3.7,12.0,47,0.00,,,0.00,WUHU216DAVISVP2,2013-03-07 19:20:00,
2013-03-07 14:25:00,52.5,33.3,30.20,WNW,297,4.0,8.0,48,0.00,,,0.00,WUHU216DAVISVP2,2013-03-07 19:25:00,
2013-03-07 14:30:00,52.4,32.1,30.20,NW,318,4.2,10.0,46,0.00,,,0.00,WUHU216DAVISVP2,2013-03-07 19:30:00,
2013-03-07 14:35:00,52.3,31.6,30.20,WNW,292,2.6,11.0,45,0.00,,,0.00,WUHU216DAVISVP2,2013-03-07 19:35:00,
2013-03-07 14:40:00,52.3,32.0,30.20,NW,316,5.0,11.0,46,0.00,,,0.00,WUHU216DAVISVP2,2013-03-07 19:40:00,
2013-03-07 14:45:00,52.4,32.1,30.20,WNW,296,3.2,11.0,46,0.00,,,0.00,WUHU216DAVISVP2,2013-03-07 19:45:00,
2013-03-07 14:50:00,52.6,32.9,30.20,NW,313,5.4,9.0,47,0.00,,,0.00,WUHU216DAVISVP2,2013-03-07 19:50:00,
2013-03-07 14:55:00,52.8,33.1,30.20,WNW,294,2.9,9.0,47,0.00,,,0.00,WUHU216DAVISVP2,2013-03-07 19:55:00,
2013-03-07 15:00:00,53.3,33.5,30.20,NW,308,2.9,9.0,47,0.00,,,0.00,WUHU216DAVISVP2,2013-03-07 20:00:00,
2013-03-07 15:05:00,53.5,33.7,30.19,WNW,299,1.5,9.0,47,0.00,,,0.00,WUHU216DAVISVP2,2013-03-07 20:05:00,
2013-03-07 15:11:00,53.8,33.4,30.19,NW,314,3.3,9.0,46,0.00,,,0.00,WUHU216DAVISVP2,2013-03-07 20:11:00,
2013-03-07 15:16:00,53.7,32.8,30.19,NW,321,6.9,14.0,45,0.00,,,0.00,WUHU216DAVISVP2,2013-03-07 20:16:00,
2013-03-07 15:21:00,53.2,32.4,30.19,NW,308,6.0,14.0,45,0.00,,,0.00,WUHU216DAVISVP2,2013-03-07 20:21:00,
2013-03-07 15:26:00,53.0,32.2,30.20,NNW,329,7.0,14.0,45,0.00,,,0.00,WUHU216DAVISVP2,2013-03-07 20:26:00,
2013-03-07 15:31:00,52.7,31.9,30.20,NW,318,4.5,14.0,45,0.00,,,0.00,WUHU216DAVISVP2,2013-03-07 20:31:00,
2013-03-07 15:36:00,52.8,32.6,30.20,NW,317,9.0,11.0,46,0.00,,,0.00,WUHU216DAVISVP2,2013-03-07 20:36:00,
2013-03-07 15:41:00,52.9,32.0,30.20,NW,305,3.0,11.0,45,0.00,,,0.00,WUHU216DAVISVP2,2013-03-07 20:41:00,
2013-03-07 15:46:00,52.9,33.1,30.20,WNW,284,6.0,11.0,47,0.00,,,0.00,WUHU216DAVISVP2,2013-03-07 20:46:00,
2013-03-07 15:51:00,52.9,32.6,30.19,WNW,288,2.5,10.0,46,0.00,,,0.00,WUHU216DAVISVP2,2013-03-07 20:51:00,
2013-03-07 15:56:00,53.0,32.7,30.19,WNW,283,3.0,10.0,46,0.00,,,0.00,WUHU216DAVISVP2,2013-03-07 20:56:00,
2013-03-07 16:01:00,53.2,32.9,30.19,NW,305,2.2,10.0,46,0.00,,,0.00,WUHU216DAVISVP2,2013-03-07 21:01:00,
2013-03-07 16:06:00,53.4,31.9,30.19,WNW,302,2.8,9.0,44,0.00,,,0.00,WUHU216DAVISVP2,2013-03-07 21:06:00,
2013-03-07 16:11:00,53.1,31.6,30.19,NW,326,4.3,9.0,44,0.00,,,0.00,WUHU216DAVISVP2,2013-03-07 21:11:00,
2013-03-07 16:16:00,53.2,31.7,30.19,NW,321,4.0,9.0,44,0.00,,,0.00,WUHU216DAVISVP2,2013-03-07 21:16:00,
2013-03-07 16:21:00,53.1,32.2,30.19,WNW,299,2.6,9.0,45,0.00,,,0.00,WUHU216DAVISVP2,2013-03-07 21:21:00,
2013-03-07 16:26:00,53.3,32.4,30.19,NW,312,3.1,9.0,45,0.00,,,0.00,WUHU216DAVISVP2,2013-03-07 21:26:00,
2013-03-07 16:31:00,53.3,31.9,30.19,NW,313,4.4,10.0,44,0.00,,,0.00,WUHU216DAVISVP2,2013-03-07 21:31:00,
2013-03-07 16:36:00,53.1,31.7,30.19,WNW,292,6.0,10.0,44,0.00,,,0.00,WUHU216DAVISVP2,2013-03-07 21:36:00,
2013-03-07 16:41:00,53.1,31.6,30.19,NW,324,5.0,10.0,44,0.00,,,0.00,WUHU216DAVISVP2,2013-03-07 21:41:00,
2013-03-07 16:46:00,53.1,31.1,30.19,WNW,286,3.0,9.0,43,0.00,,,0.00,WUHU216DAVISVP2,2013-03-07 21:46:00,
2013-03-07 16:51:00,53.0,31.0,30.19,NNW,338,7.0,11.0,43,0.00,,,0.00,WUHU216DAVISVP2,2013-03-07 21:51:00,
2013-03-07 16:56:00,53.1,31.6,30.19,NW,325,7.0,11.0,44,0.00,,,0.00,WUHU216DAVISVP2,2013-03-07 21:56:00,
2013-03-07 17:01:00,53.1,31.7,30.19,NW,316,5.0,11.0,44,0.00,,,0.00,WUHU216DAVISVP2,2013-03-07 22:01:00,
2013-03-07 17:06:00,53.0,32.2,30.19,WNW,301,3.3,11.0,45,0.00,,,0.00,WUHU216DAVISVP2,2013-03-07 22:06:00,
2013-03-07 17:11:00,52.7,31.3,30.19,NW,321,5.0,11.0,44,0.00,,,0.00,WUHU216DAVISVP2,2013-03-07 22:11:00,
2013-03-07 17:16:00,52.6,31.2,30.20,NW,309,5.1,10.0,44,0.00,,,0.00,WUHU216DAVISVP2,2013-03-07 22:16:00,
2013-03-07 17:21:00,52.5,31.1,30.20,NW,308,4.4,10.0,44,0.00,,,0.00,WUHU216DAVISVP2,2013-03-07 22:21:00,
2013-03-07 17:26:00,52.3,31.5,30.20,WNW,287,4.0,9.0,45,0.00,,,0.00,WUHU216DAVISVP2,2013-03-07 22:26:00,
2013-03-07 17:31:00,52.1,31.9,30.20,WNW,292,4.0,9.0,46,0.00,,,0.00,WUHU216DAVISVP2,2013-03-07 22:31:00,
2013-03-07 17:36:00,51.8,31.7,30.20,NW,308,4.9,10.0,46,0.00,,,0.00,WUHU216DAVISVP2,2013-03-07 22:36:00,
2013-03-07 17:41:00,51.7,31.0,30.21,NW,312,5.3,12.0,45,0.00,,,0.00,WUHU216DAVISVP2,2013-03-07 22:41:00,
2013-03-07 17:46:00,51.4,31.3,30.21,NW,318,5.7,14.0,46,0.00,,,0.00,WUHU216DAVISVP2,2013-03-07 22:46:00,
2013-03-07 17:51:00,51.2,31.6,30.21,WNW,297,4.0,14.0,47,0.00,,,0.00,WUHU216DAVISVP2,2013-03-07 22:51:00,
2013-03-07 17:56:00,50.9,30.8,30.21,WNW,292,5.0,13.0,46,0.00,,,0.00,WUHU216DAVISVP2,2013-03-07 22:56:00,
2013-03-07 18:01:00,50.6,30.5,30.22,NW,309,4.0,13.0,46,0.00,,,0.00,WUHU216DAVISVP2,2013-03-07 23:01:00,
2013-03-07 18:06:00,50.4,30.8,30.22,NNW,338,4.0,10.0,47,0.00,,,0.00,WUHU216DAVISVP2,2013-03-07 23:06:00,
2013-03-07 18:11:00,50.2,31.7,30.22,NW,323,5.1,10.0,49,0.00,,,0.00,WUHU216DAVISVP2,2013-03-07 23:11:00,
2013-03-07 18:16:00,49.7,31.8,30.22,WNW,302,7.0,11.0,50,0.00,,,0.00,WUHU216DAVISVP2,2013-03-07 23:16:00,
2013-03-07 18:21:00,49.2,31.8,30.22,NW,321,3.1,11.0,51,0.00,,,0.00,WUHU216DAVISVP2,2013-03-07 23:21:00,
2013-03-07 18:26:00,48.9,32.0,30.22,WNW,289,4.0,11.0,52,0.00,,,0.00,WUHU216DAVISVP2,2013-03-07 23:26:00,
2013-03-07 18:32:00,48.4,31.6,30.23,NNW,331,4.0,11.0,52,0.00,,,0.00,WUHU216DAVISVP2,2013-03-07 23:32:00,
2013-03-07 18:37:00,47.9,31.6,30.22,NW,316,3.9,10.0,53,0.00,,,0.00,WUHU216DAVISVP2,2013-03-07 23:37:00,
2013-03-07 18:42:00,47.5,31.7,30.22,NW,321,4.0,10.0,54,0.00,,,0.00,WUHU216DAVISVP2,2013-03-07 23:42:00,
2013-03-07 18:47:00,47.2,31.4,30.22,NW,315,6.0,10.0,54,0.00,,,0.00,WUHU216DAVISVP2,2013-03-07 23:47:00,
2013-03-07 18:52:00,46.9,31.6,30.23,NW,319,2.8,8.0,55,0.00,,,0.00,WUHU216DAVISVP2,2013-03-07 23:52:00,
2013-03-07 18:57:00,46.6,31.8,30.23,NNW,331,5.0,8.0,56,0.00,,,0.00,WUHU216DAVISVP2,2013-03-07 23:57:00,
2013-03-07 19:02:00,46.3,31.5,30.22,NNW,331,3.0,8.0,56,0.00,,,0.00,WUHU216DAVISVP2,2013-03-08 00:02:00,
2013-03-07 19:07:00,46.0,31.2,30.23,NNW,342,8.0,8.0,56,0.00,,,0.00,WUHU216DAVISVP2,2013-03-08 00:07:00,
2013-03-07 19:12:00,45.8,31.5,30.23,NW,323,3.5,9.0,57,0.00,,,0.00,WUHU216DAVISVP2,2013-03-08 00:12:00,
2013-03-07 19:17:00,45.6,31.3,30.23,NW,313,3.0,9.0,57,0.00,,,0.00,WUHU216DAVISVP2,2013-03-08 00:17:00,
2013-03-07 19:22:00,45.4,31.1,30.23,NW,306,3.0,9.0,57,0.00,,,0.00,WUHU216DAVISVP2,2013-03-08 00:22:00,
2013-03-07 19:27:00,45.2,31.4,30.23,WNW,298,3.0,7.0,58,0.00,,,0.00,WUHU216DAVISVP2,2013-03-08 00:27:00,
2013-03-07 19:32:00,45.0,31.2,30.23,NW,310,2.1,7.0,58,0.00,,,0.00,WUHU216DAVISVP2,2013-03-08 00:32:00,
2013-03-07 19:37:00,44.9,31.5,30.23,WNW,303,2.1,7.0,59,0.00,,,0.00,WUHU216DAVISVP2,2013-03-08 00:37:00,
2013-03-07 19:42:00,44.9,31.5,30.23,NW,305,2.0,7.0,59,0.00,,,0.00,WUHU216DAVISVP2,2013-03-08 00:42:00,
2013-03-07 19:47:00,44.4,31.0,30.23,NW,319,5.0,10.0,59,0.00,,,0.00,WUHU216DAVISVP2,2013-03-08 00:47:00,
2013-03-07 19:52:00,44.2,31.3,30.24,NW,312,2.9,10.0,60,0.00,,,0.00,WUHU216DAVISVP2,2013-03-08 00:52:00,
2013-03-07 19:57:00,43.9,31.4,30.24,NNW,328,2.6,10.0,61,0.00,,,0.00,WUHU216DAVISVP2,2013-03-08 00:57:00,
2013-03-07 20:02:00,43.7,31.2,30.24,NNW,331,7.0,10.0,61,0.00,,,0.00,WUHU216DAVISVP2,2013-03-08 01:02:00,
2013-03-07 20:07:00,43.5,31.0,30.24,NNW,338,7.0,11.0,61,0.00,,,0.00,WUHU216DAVISVP2,2013-03-08 01:07:00,
2013-03-07 20:12:00,43.3,30.8,30.24,NW,305,3.9,11.0,61,0.00,,,0.00,WUHU216DAVISVP2,2013-03-08 01:12:00,
2013-03-07 20:17:00,43.1,31.0,30.24,NW,304,3.2,11.0,62,0.00,,,0.00,WUHU216DAVISVP2,2013-03-08 01:17:00,
2013-03-07 20:22:00,42.8,30.8,30.24,NW,315,2.9,11.0,62,0.00,,,0.00,WUHU216DAVISVP2,2013-03-08 01:22:00,
2013-03-07 20:27:00,42.6,31.0,30.24,NW,308,2.7,8.0,63,0.00,,,0.00,WUHU216DAVISVP2,2013-03-08 01:27:00,
2013-03-07 20:32:00,42.4,30.8,30.24,NW,314,2.6,7.0,63,0.00,,,0.00,WUHU216DAVISVP2,2013-03-08 01:32:00,
2013-03-07 20:37:00,42.2,31.0,30.24,WNW,303,4.0,8.0,64,0.00,,,0.00,WUHU216DAVISVP2,2013-03-08 01:37:00,
2013-03-07 20:42:00,42.0,30.8,30.24,NW,322,3.0,8.0,64,0.00,,,0.00,WUHU216DAVISVP2,2013-03-08 01:42:00,
2013-03-07 20:47:00,41.8,30.6,30.24,NW,313,3.0,8.0,64,0.00,,,0.00,WUHU216DAVISVP2,2013-03-08 01:47:00,
2013-03-07 20:52:00,41.5,30.7,30.24,NNW,330,4.0,8.0,65,0.00,,,0.00,WUHU216DAVISVP2,2013-03-08 01:52:00,
2013-03-07 20:57:00,41.4,30.6,30.24,NW,313,3.6,7.0,65,0.00,,,0.00,WUHU216DAVISVP2,2013-03-08 01:57:00,
2013-03-07 21:02:00,41.3,30.5,30.24,NW,312,3.2,7.0,65,0.00,,,0.00,WUHU216DAVISVP2,2013-03-08 02:02:00,
2013-03-07 21:07:00,41.1,30.3,30.24,NW,310,5.0,8.0,65,0.00,,,0.00,WUHU216DAVISVP2,2013-03-08 02:07:00,
2013-03-07 21:12:00,41.0,29.8,30.24,NW,312,3.1,10.0,64,0.00,,,0.00,WUHU216DAVISVP2,2013-03-08 02:12:00,
2013-03-07 21:17:00,40.8,29.6,30.24,NW,313,3.5,10.0,64,0.00,,,0.00,WUHU216DAVISVP2,2013-03-08 02:17:00,
2013-03-07 21:22:00,40.6,29.8,30.24,NW,308,4.1,10.0,65,0.00,,,0.00,WUHU216DAVISVP2,2013-03-08 02:22:00,
2013-03-07 21:27:00,40.5,29.4,30.24,NW,310,3.7,10.0,64,0.00,,,0.00,WUHU216DAVISVP2,2013-03-08 02:27:00,
2013-03-07 21:32:00,40.4,29.3,30.23,NW,305,4.3,9.0,64,0.00,,,0.00,WUHU216DAVISVP2,2013-03-08 02:32:00,
2013-03-07 21:37:00,40.2,29.5,30.24,NW,315,4.4,9.0,65,0.00,,,0.00,WUHU216DAVISVP2,2013-03-08 02:37:00,
2013-03-07 21:42:00,40.1,29.4,30.23,NW,311,3.8,9.0,65,0.00,,,0.00,WUHU216DAVISVP2,2013-03-08 02:42:00,
2013-03-07 21:47:00,40.0,29.3,30.24,NW,310,3.7,9.0,65,0.00,,,0.00,WUHU216DAVISVP2,2013-03-08 02:47:00,
2013-03-07 21:52:00,39.9,29.5,30.23,NW,304,2.7,9.0,66,0.00,,,0.00,WUHU216DAVISVP2,2013-03-08 02:52:00,
2013-03-07 21:57:00,39.7,29.4,30.23,NW,319,4.0,10.0,66,0.00,,,0.00,WUHU216DAVISVP2,2013-03-08 02:57:00,
2013-03-07 22:02:00,39.6,29.6,30.24,NW,320,4.0,10.0,67,0.00,,,0.00,WUHU216DAVISVP2,2013-03-08 03:02:00,
2013-03-07 22:07:00,39.5,29.5,30.24,NW,306,4.9,10.0,67,0.00,,,0.00,WUHU216DAVISVP2,2013-03-08 03:07:00,
2013-03-07 22:12:00,39.4,29.4,30.24,NNW,335,4.0,10.0,67,0.00,,,0.00,WUHU216DAVISVP2,2013-03-08 03:12:00,
2013-03-07 22:17:00,39.3,29.3,30.24,WNW,298,3.5,10.0,67,0.00,,,0.00,WUHU216DAVISVP2,2013-03-08 03:17:00,
2013-03-07 22:22:00,39.2,29.6,30.24,NW,306,4.2,10.0,68,0.00,,,0.00,WUHU216DAVISVP2,2013-03-08 03:22:00,
2013-03-07 22:27:00,39.0,29.4,30.24,NW,310,4.3,10.0,68,0.00,,,0.00,WUHU216DAVISVP2,2013-03-08 03:27:00,
2013-03-07 22:32:00,39.0,29.4,30.23,West,281,5.0,10.0,68,0.00,,,0.00,WUHU216DAVISVP2,2013-03-08 03:32:00,
2013-03-07 22:37:00,38.9,29.7,30.23,NW,313,4.0,10.0,69,0.00,,,0.00,WUHU216DAVISVP2,2013-03-08 03:37:00,
2013-03-07 22:42:00,38.8,29.6,30.23,NW,306,4.1,10.0,69,0.00,,,0.00,WUHU216DAVISVP2,2013-03-08 03:42:00,
2013-03-07 22:47:00,38.7,29.5,30.23,NW,309,4.5,10.0,69,0.00,,,0.00,WUHU216DAVISVP2,2013-03-08 03:47:00,
2013-03-07 22:52:00,38.7,29.5,30.23,WNW,298,4.0,10.0,69,0.00,,,0.00,WUHU216DAVISVP2,2013-03-08 03:52:00,
2013-03-07 22:57:00,38.6,29.4,30.23,NNW,346,6.0,10.0,69,0.00,,,0.00,WUHU216DAVISVP2,2013-03-08 03:57:00,
2013-03-07 23:02:00,38.4,29.5,30.22,NW,306,4.0,10.0,70,0.00,,,0.00,WUHU216DAVISVP2,2013-03-08 04:02:00,
2013-03-07 23:07:00,38.3,29.4,30.22,NW,308,4.0,8.0,70,0.00,,,0.00,WUHU216DAVISVP2,2013-03-08 04:07:00,
2013-03-07 23:12:00,38.1,29.3,30.22,NW,311,3.2,8.0,70,0.00,,,0.00,WUHU216DAVISVP2,2013-03-08 04:12:00,
2013-03-07 23:17:00,38.0,29.5,30.22,WNW,291,4.0,8.0,71,0.00,,,0.00,WUHU216DAVISVP2,2013-03-08 04:17:00,
2013-03-07 23:22:00,37.9,29.4,30.22,NW,310,3.8,7.0,71,0.00,,,0.00,WUHU216DAVISVP2,2013-03-08 04:22:00,
2013-03-07 23:27:00,37.8,29.3,30.22,WNW,295,3.0,7.0,71,0.00,,,0.00,WUHU216DAVISVP2,2013-03-08 04:27:00,
2013-03-07 23:32:00,37.7,29.2,30.22,NW,304,3.3,7.0,71,0.00,,,0.00,WUHU216DAVISVP2,2013-03-08 04:32:00,
2013-03-07 23:37:00,37.7,29.2,30.22,NW,314,3.5,7.0,71,0.00,,,0.00,WUHU216DAVISVP2,2013-03-08 04:37:00,
2013-03-07 23:42:00,37.6,29.1,30.22,NW,316,3.9,7.0,71,0.00,,,0.00,WUHU216DAVISVP2,2013-03-08 04:42:00,
2013-03-07 23:47:00,37.5,29.0,30.22,NW,311,3.1,7.0,71,0.00,,,0.00,WUHU216DAVISVP2,2013-03-08 04:47:00,
2013-03-07 23:52:00,37.4,28.9,30.22,NW,316,3.1,8.0,71,0.00,,,0.00,WUHU216DAVISVP2,2013-03-08 04:52:00,
2013-03-07 23:57:00,37.3,28.8,30.22,NW,310,3.0,8.0,71,0.00,,,0.00,WUHU216DAVISVP2,2013-03-08 04:57:00,